Powrót do katalogu

STARLINK-3138

AktywnyŁącznośćVLEO
NORAD 49430·PAYLOAD·🇺🇸 United States

Wystrzelony Nov 13, 2021 z Cape Canaveral Space Force Station

Loading…

Następne Przeloty (najbliższe 24 godziny)

TLE

ŚwieżeSource: CelesTrak SupGP

Epoka: Sep 14, 2026, 20:02 UTC

1 49430C 21104Y   26257.83520833 -.00008062  00000+0 -23828-3 0  2572
2 49430  53.1574  87.8467 0001099  76.9706   5.5494 15.34385152    16

Śledź STARLINK-3138 w czasie rzeczywistym z AllMySat

Download on the App Store